[[{"header":{"parameterUnit":"m.s-1","parameterCategory":1,"la1":30.2991,"la2":30.254,"lo1":-89.0895,"lo2":-89.0444,"dy":0.0017,"dx":0.0017,"nx":28,"ny":28,"refTime":"2023-10-14T03:00:00:Z","depth":0,"parameterNumber":2,"parameterNumberName":"U-component_of_WINDS"},"data":[0,0,0,0,0,0,0,0,0,0,0,0,0,0,0,0,0,0,0,0,0,0,0,0,0,0,0,0,0,0,0,0,0,0,0,0,0,0,0,0,0,0,0,0,0,0,0,0,0,0,0,0,0,0,0,0,0,0,3.8603,3.8604,0,3.8648,3.8649,3.8649,3.862,3.8619,3.8618,3.8616,3.866,3.8662,3.8665,0,0,0,0,0,0,0,0,0,0,0,0,0,3.8492,3.8494,3.8603,3.8604,3.8604,3.8648,3.8649,3.8649,3.8621,3.8619,3.8617,3.8616,3.8659,3.8662,3.8665,0,0,0,0,0,0,0,0,0,0,0,0,0,3.8539,3.8495,3.8603,3.8595,3.8595,3.8648,3.8649,3.8649,3.8621,3.8619,3.8617,3.8615,3.8658,3.8662,3.8665,3.8728,0,0,3.8676,3.8678,0,0,0,0,0,0,0,0,3.8536,3.8543,3.8596,3.8596,3.8596,3.8627,3.8625,3.8676,3.8621,3.8611,3.8616,3.8614,3.865,3.8654,3.8667,3.873,3.8731,3.8677,3.8679,3.868,3.8681,0,0,0,0,0,0,0,3.8533,3.8541,3.8621,3.8597,3.8597,3.8589,3.8594,3.8635,3.8641,3.8612,3.861,3.8616,3.865,3.8664,3.8668,3.8732,3.8677,3.868,3.8682,3.8683,3.885,3.8852,0,0,0,0,0,0,3.853,3.8538,3.8619,3.8622,3.8561,3.8593,3.8598,3.8619,3.8641,3.8642,3.8617,3.8614,3.8659,3.8664,3.8669,3.8745,3.868,3.8684,3.8686,3.8848,3.885,3.8853,0,0,0,0,0,0,3.8528,3.8538,3.8618,3.858,3.8589,3.8597,3.8621,3.8621,3.8635,3.8645,3.8646,3.863,3.8657,3.8664,3.8714,3.8746,3.8685,3.8689,3.8845,3.8848,3.8852,3.8896,0,0,0,0,0,0,3.8525,3.8537,3.8561,3.8581,3.8592,3.8662,3.8623,3.8623,3.8641,3.8637,3.8657,3.8659,3.8656,3.8709,3.8718,3.875,3.8691,3.8842,3.8847,3.885,3.8891,3.89,3.8908,0,0,0,0,0,3.8521,3.8571,3.8562,3.8572,3.8621,3.8664,3.867,3.8666,3.8644,3.8668,3.8675,3.8658,3.8741,3.8714,3.8724,3.8758,3.884,3.8845,3.885,3.8888,3.8898,3.8907,0,0,0,0,0,0,3.8553,3.8573,3.8564,3.8621,3.8641,3.8659,3.8688,3.8678,3.8703,3.8699,3.8693,3.8698,3.875,3.8759,3.8728,3.882,3.8787,3.8794,3.8812,3.8822,3.883,3.8827,3.8694,0,0,0,0,0,3.8567,3.86,3.8616,3.8665,3.8675,3.8681,3.8699,3.8695,3.8715,3.8723,3.8733,3.8753,3.8783,3.8803,3.8832,3.8893,3.8897,3.8921,3.8929,3.8936,3.8942,3.8976,3.8987,3.8869,3.8869,3.8869,0,0,3.8596,3.8611,3.8632,3.8672,3.8686,3.8721,3.8688,3.8725,3.875,3.8728,3.8776,3.8785,3.8806,3.8862,3.8887,3.8871,3.8976,3.8942,3.8947,3.895,3.8983,3.8994,3.9004,3.8873,3.8872,3.8872,0,0,3.8666,3.868,3.8724,3.874,3.8764,3.8767,3.8778,3.8797,3.8803,3.8851,3.8836,3.8866,3.8918,3.8935,3.895,3.9029,3.9015,3.9039,3.9081,3.9114,3.9124,3.9132,3.9161,3.9171,3.9045,3.9045,3.9045,0,3.8698,3.875,3.8747,3.8786,3.8805,3.8788,3.8832,3.8847,3.8879,3.8892,3.8874,3.8941,3.8954,3.9014,3.9034,3.9047,3.9059,3.9036,3.9123,3.9131,3.9138,3.9166,3.9177,3.9048,3.9047,3.9047,3.9047,0,3.8789,3.8825,3.8857,3.889,3.8912,3.8953,3.8957,3.8979,3.8974,3.898,3.903,3.9046,3.9078,3.9092,3.9087,3.9152,3.9142,3.9123,3.909,3.9152,3.9178,3.9189,3.9052,3.9051,3.905,3.9049,0,0,3.8878,3.8911,3.8922,3.8938,3.8964,3.8992,3.9033,3.9066,3.9086,3.9109,3.9143,3.9189,3.9173,3.9191,3.9187,3.9217,3.928,3.9195,3.9195,3.921,3.9354,3.9368,3.938,3.9271,3.9273,3.9275,3.9353,0,3.895,3.9023,3.9023,3.909,3.9124,3.9109,3.9145,3.9165,3.9172,3.9202,3.9209,3.9243,3.9218,3.9229,3.9258,3.9266,3.9309,3.926,3.9303,3.9305,3.9298,3.9393,3.9408,3.948,3.9363,3.9364,3.9365,0,3.9043,3.9071,3.9142,3.9165,3.9179,3.9211,3.9243,3.9271,3.9294,3.9297,3.9318,3.9311,3.9353,3.932,3.9378,3.9345,3.9363,3.937,3.9373,3.9376,3.9339,3.94,3.9503,3.9514,3.9381,3.938,3.9379,0,3.9102,3.9157,3.9207,3.922,3.9248,3.9272,3.9284,3.9305,3.9326,3.9353,3.9366,3.9398,3.9415,3.944,3.9441,3.9416,3.9501,3.9467,3.9505,3.9505,3.9522,3.9521,3.963,3.9534,3.9534,3.9534,3.9533,0,3.9182,3.9226,3.9234,3.9265,3.9314,3.9314,3.9363,3.9373,3.9392,3.9425,3.9414,3.9445,3.9446,3.9477,3.9479,3.9528,3.9535,3.9539,3.9539,3.954,3.954,3.9551,3.9546,3.9536,3.9536,3.9535,3.9535,0,3.9256,3.9263,3.9316,3.9339,3.9346,3.9382,3.9401,3.9431,3.9438,3.9479,3.9489,3.9499,3.9536,3.9541,3.9583,3.9584,3.9643,3.9638,3.9636,3.9635,3.9673,3.9669,3.9793,3.9809,3.9702,3.9703,3.9704,0,3.9306,3.934,3.9367,3.9389,3.9404,3.9438,3.946,3.9461,3.9484,3.9514,3.954,3.9576,3.9605,3.9665,3.9676,3.9709,3.9704,3.9746,3.9709,3.971,3.9705,3.9703,3.9707,3.9752,3.9753,3.9754,3.9755,0,3.9395,3.9398,3.943,3.9464,3.949,3.9516,3.9541,3.9559,3.9564,3.959,3.9628,3.9651,3.9696,3.9732,3.9765,3.9778,3.9768,3.9767,3.9777,3.9779,3.9776,3.9779,3.9655,3.9764,3.9763,3.9762,3.9762,3.9761,3.9459,3.9489,3.9514,3.955,3.957,3.9593,3.9623,3.9634,3.9667,3.9704,3.9703,3.9745,3.9769,3.9812,3.9828,3.9861,3.9847,3.9862,3.9866,3.987,3.9874,3.9772,3.9867,3.9867,3.9866,3.9866,3.9866,0,3.9548,3.9564,3.9598,3.9634,3.9662,3.9652,3.9679,3.9704,3.9742,3.9765,3.9794,3.9839,3.9875,3.989,3.9925,3.9949,3.9945,3.9958,3.9956,3.996,3.9884,3.9871,3.9961,3.9961,3.9961,3.9961,3.9961,3.9961,3.9598,3.9649,3.9655,3.9716,3.9731,3.9773,3.979,3.9812,3.9831,3.9882,3.9912,3.9922,3.9942,3.9979,4.0012,4.0015,4.0029,4.0044,4.0046,3.9974,3.9965,3.9956,3.9944,4.0047,4.0047,4.0118,4.0119,4.012]},{"header":{"parameterUnit":"m.s-1","parameterCategory":1,"la1":30.2991,"la2":30.254,"lo1":-89.0895,"lo2":-89.0444,"dy":0.0017,"dx":0.0017,"nx":28,"ny":28,"refTime":"2023-10-14T03:00:00:Z","depth":0,"parameterNumber":3,"parameterNumberName":"V-component_of_WINDS"},"data":[0,0,0,0,0,0,0,0,0,0,0,0,0,0,0,0,0,0,0,0,0,0,0,0,0,0,0,0,0,0,0,0,0,0,0,0,0,0,0,0,0,0,0,0,0,0,0,0,0,0,0,0,0,0,0,0,0,0,-8.2255,-8.2257,0,-8.2363,-8.2364,-8.2365,-8.2317,-8.2314,-8.2311,-8.2309,-8.2413,-8.2418,-8.2423,0,0,0,0,0,0,0,0,0,0,0,0,0,-8.2003,-8.2008,-8.2255,-8.2257,-8.2258,-8.2363,-8.2364,-8.2366,-8.2317,-8.2314,-8.2311,-8.2308,-8.2411,-8.2417,-8.2424,0,0,0,0,0,0,0,0,0,0,0,0,0,-8.2112,-8.201,-8.2255,-8.2247,-8.2247,-8.2362,-8.2364,-8.2366,-8.2318,-8.2314,-8.231,-8.2306,-8.2409,-8.2417,-8.2424,-8.2553,0,0,-8.2448,-8.2452,0,0,0,0,0,0,0,0,-8.2106,-8.2121,-8.2246,-8.2247,-8.2248,-8.2322,-8.2313,-8.2428,-8.2319,-8.2291,-8.2309,-8.2304,-8.2386,-8.2395,-8.2424,-8.2558,-8.2562,-8.2449,-8.2454,-8.2457,-8.246,0,0,0,0,0,0,0,-8.2098,-8.2116,-8.2298,-8.2248,-8.2249,-8.2236,-8.2247,-8.2335,-8.2359,-8.2293,-8.229,-8.2303,-8.2385,-8.2416,-8.2426,-8.2564,-8.2449,-8.2456,-8.2461,-8.2464,-8.2809,-8.2813,0,0,0,0,0,0,-8.2092,-8.211,-8.2294,-8.2301,-8.2166,-8.2244,-8.2256,-8.2302,-8.2358,-8.2363,-8.2307,-8.2301,-8.2405,-8.2417,-8.2429,-8.2583,-8.2457,-8.2465,-8.2469,-8.2804,-8.281,-8.2814,0,0,0,0,0,0,-8.2086,-8.2108,-8.229,-8.2205,-8.2227,-8.2252,-8.2305,-8.2307,-8.2338,-8.2368,-8.2372,-8.2335,-8.2402,-8.2418,-8.2523,-8.2586,-8.2468,-8.2475,-8.2799,-8.2806,-8.2812,-8.2892,0,0,0,0,0,0,-8.2079,-8.2107,-8.2157,-8.2206,-8.2232,-8.2383,-8.2309,-8.2312,-8.2352,-8.2346,-8.2395,-8.24,-8.24,-8.2512,-8.2531,-8.2595,-8.2481,-8.2793,-8.2802,-8.281,-8.2884,-8.2901,-8.2915,0,0,0,0,0,-8.2071,-8.2174,-8.216,-8.2182,-8.2295,-8.2387,-8.2401,-8.2402,-8.2358,-8.2407,-8.2427,-8.2398,-8.2577,-8.2523,-8.2544,-8.2611,-8.2789,-8.28,-8.2809,-8.2877,-8.2898,-8.2915,0,0,0,0,0,0,-8.2128,-8.218,-8.2165,-8.2287,-8.2334,-8.2379,-8.2441,-8.2423,-8.2481,-8.2472,-8.2468,-8.248,-8.2588,-8.261,-8.2549,-8.2739,-8.2676,-8.2691,-8.272,-8.274,-8.2755,-8.2747,-8.2488,0,0,0,0,0,-8.2156,-8.2228,-8.2268,-8.2373,-8.2397,-8.2416,-8.2456,-8.2452,-8.2499,-8.2518,-8.2545,-8.259,-8.2656,-8.2699,-8.2762,-8.2888,-8.2897,-8.2945,-8.296,-8.2973,-8.2985,-8.3053,-8.3075,-8.2847,-8.2847,-8.2847,0,0,-8.2212,-8.2249,-8.2294,-8.2385,-8.2421,-8.2494,-8.2432,-8.2512,-8.2566,-8.2529,-8.263,-8.2652,-8.2702,-8.2818,-8.287,-8.2839,-8.3051,-8.2986,-8.2996,-8.3001,-8.3066,-8.3087,-8.3106,-8.2854,-8.2853,-8.2852,0,0,-8.2352,-8.2388,-8.2479,-8.2517,-8.2572,-8.2584,-8.2607,-8.2655,-8.2669,-8.2771,-8.2745,-8.2809,-8.2923,-8.296,-8.2993,-8.3151,-8.3126,-8.3171,-8.3252,-8.3318,-8.3336,-8.3352,-8.3407,-8.3427,-8.3183,-8.3184,-8.3184,0,-8.2414,-8.2526,-8.2528,-8.2611,-8.2651,-8.2624,-8.2716,-8.2752,-8.2824,-8.2851,-8.2817,-8.2961,-8.2992,-8.3117,-8.3155,-8.3184,-8.3208,-8.3164,-8.3334,-8.335,-8.3365,-8.3417,-8.3438,-8.3189,-8.3188,-8.3188,-8.3187,0,-8.26,-8.2678,-8.2745,-8.2818,-8.2866,-8.2953,-8.2967,-8.3015,-8.3008,-8.3024,-8.3128,-8.3165,-8.3235,-8.3265,-8.3258,-8.3389,-8.3368,-8.3334,-8.327,-8.3391,-8.3441,-8.3461,-8.3196,-8.3194,-8.3193,-8.3191,0,0,-8.2777,-8.2853,-8.2877,-8.291,-8.2971,-8.303,-8.3116,-8.3187,-8.3228,-8.3279,-8.335,-8.3449,-8.3418,-8.3456,-8.3453,-8.3512,-8.3634,-8.3471,-8.3472,-8.3499,-8.378,-8.3804,-8.3828,-8.3619,-8.3623,-8.3626,-8.3776,0,-8.2921,-8.3073,-8.3079,-8.3217,-8.3289,-8.3265,-8.334,-8.3384,-8.3401,-8.3463,-8.3481,-8.3552,-8.3506,-8.3529,-8.3587,-8.3607,-8.369,-8.3597,-8.3683,-8.3686,-8.367,-8.3854,-8.388,-8.4019,-8.3795,-8.3798,-8.3801,0,-8.3109,-8.3169,-8.3316,-8.3367,-8.3397,-8.3465,-8.3531,-8.3591,-8.3641,-8.3649,-8.3694,-8.3683,-8.3769,-8.3705,-8.3823,-8.3759,-8.3795,-8.381,-8.3816,-8.3822,-8.375,-8.3864,-8.4063,-8.4084,-8.3831,-8.3829,-8.3827,0,-8.3223,-8.334,-8.3443,-8.3473,-8.3535,-8.3583,-8.3611,-8.3657,-8.37,-8.3758,-8.3785,-8.3851,-8.3887,-8.3937,-8.3944,-8.3897,-8.4063,-8.3999,-8.4071,-8.4071,-8.4105,-8.4102,-8.4312,-8.4131,-8.413,-8.413,-8.4129,0,-8.3382,-8.3473,-8.3496,-8.3559,-8.3659,-8.3664,-8.3763,-8.3787,-8.3829,-8.3895,-8.3878,-8.394,-8.3946,-8.401,-8.4016,-8.4112,-8.4129,-8.4137,-8.4137,-8.4138,-8.4137,-8.416,-8.415,-8.4135,-8.4134,-8.4133,-8.4132,0,-8.3525,-8.3545,-8.3655,-8.3707,-8.3722,-8.3794,-8.3837,-8.3897,-8.3914,-8.3998,-8.4018,-8.4043,-8.4118,-8.413,-8.4217,-8.4221,-8.4336,-8.4327,-8.432,-8.4319,-8.439,-8.4382,-8.462,-8.4651,-8.4451,-8.4453,-8.4454,0,-8.3625,-8.3695,-8.3755,-8.38,-8.3831,-8.3902,-8.3947,-8.3955,-8.4001,-8.4065,-8.4117,-8.419,-8.4249,-8.4369,-8.4394,-8.446,-8.4452,-8.453,-8.4461,-8.446,-8.4452,-8.4447,-8.4454,-8.4543,-8.4545,-8.4547,-8.4548,0,-8.3801,-8.3807,-8.3873,-8.3944,-8.3998,-8.4053,-8.4105,-8.4142,-8.4156,-8.4209,-8.4287,-8.4333,-8.4423,-8.4496,-8.4562,-8.4589,-8.4571,-8.4571,-8.459,-8.4591,-8.4584,-8.4588,-8.4355,-8.4564,-8.4563,-8.4562,-8.4561,-8.456,-8.3924,-8.3985,-8.4038,-8.4112,-8.4153,-8.4202,-8.4262,-8.4287,-8.4353,-8.4428,-8.4429,-8.4513,-8.4562,-8.465,-8.4681,-8.4747,-8.4721,-8.475,-8.4757,-8.4764,-8.4771,-8.4576,-8.4759,-8.4758,-8.4758,-8.4757,-8.4757,0,-8.4098,-8.4132,-8.42,-8.4275,-8.4334,-8.4315,-8.4372,-8.4421,-8.4497,-8.4545,-8.4604,-8.4693,-8.4764,-8.4796,-8.4866,-8.4912,-8.4905,-8.4929,-8.4925,-8.4932,-8.479,-8.4765,-8.4934,-8.4934,-8.4934,-8.4934,-8.4934,-8.4933,-8.4195,-8.4298,-8.4311,-8.4433,-8.4465,-8.455,-8.4584,-8.463,-8.4668,-8.4769,-8.4829,-8.4851,-8.4892,-8.4965,-8.5029,-8.5036,-8.5062,-8.509,-8.5093,-8.496,-8.4942,-8.4924,-8.4901,-8.5096,-8.5096,-8.5229,-8.5231,-8.5232]}]]